Time,TemperatureF,DewpointF,PressureIn,WindDirection,WindDirectionDegrees,WindSpeedMPH,WindSpeedGustMPH,Humidity,HourlyPrecipIn,Conditions,Clouds,dailyrainin,SoftwareType,DateUTC
2013-03-10 00:00:00,55.9,37.5,29.73,SE,126,1.0,4.0,50,0.00,,---,0.00,VWS V14.01,2013-03-10 05:00:00,
2013-03-10 00:01:00,55.6,37.8,29.73,SE,126,1.0,1.0,51,0.00,,---,0.00,VWS V14.01,2013-03-10 05:01:00,
2013-03-10 00:02:00,55.5,38.7,29.73,SE,126,1.0,2.0,53,0.00,,---,0.00,VWS V14.01,2013-03-10 05:02:00,
2013-03-10 00:03:00,55.2,38.9,29.73,SE,130,2.0,2.0,54,0.00,,---,0.00,VWS V14.01,2013-03-10 05:03:00,
2013-03-10 00:04:00,55.1,36.8,29.73,SSE,152,4.0,5.0,50,0.00,,---,0.00,VWS V14.01,2013-03-10 05:04:00,
2013-03-10 00:05:00,55.1,37.8,29.73,SSE,164,5.0,6.0,52,0.00,,---,0.00,VWS V14.01,2013-03-10 05:05:00,
2013-03-10 00:06:00,55.1,37.3,29.73,SSE,150,2.0,6.0,51,0.00,,---,0.00,VWS V14.01,2013-03-10 05:06:00,
2013-03-10 00:07:00,55.1,36.8,29.73,SE,140,6.0,6.0,50,0.00,,---,0.00,VWS V14.01,2013-03-10 05:07:00,
2013-03-10 00:08:00,55.2,36.9,29.73,SE,130,6.0,6.0,50,0.00,,---,0.00,VWS V14.01,2013-03-10 05:08:00,
2013-03-10 00:09:00,55.3,36.5,29.73,SE,132,5.0,7.0,49,0.00,,---,0.00,VWS V14.01,2013-03-10 05:09:00,
2013-03-10 00:10:00,55.4,36.1,29.73,SE,142,5.0,9.0,48,0.00,,---,0.00,VWS V14.01,2013-03-10 05:10:00,
2013-03-10 00:11:00,55.5,36.2,29.73,SE,135,6.0,9.0,48,0.00,,---,0.00,VWS V14.01,2013-03-10 05:11:00,
2013-03-10 00:12:00,55.6,36.2,29.73,SE,146,5.0,9.0,48,0.00,,---,0.00,VWS V14.01,2013-03-10 05:12:00,
2013-03-10 00:13:00,55.7,36.3,29.73,SSE,148,6.0,10.0,48,0.00,,---,0.00,VWS V14.01,2013-03-10 05:13:00,
2013-03-10 00:14:00,55.8,36.4,29.73,SE,140,7.0,10.0,48,0.00,,---,0.00,VWS V14.01,2013-03-10 05:14:00,
2013-03-10 00:15:00,55.8,35.9,29.73,SSE,148,3.0,10.0,47,0.00,,---,0.00,VWS V14.01,2013-03-10 05:15:00,
2013-03-10 00:16:00,55.9,36.0,29.73,SE,146,7.0,10.0,47,0.00,,---,0.00,VWS V14.01,2013-03-10 05:16:00,
2013-03-10 00:17:00,56.0,36.1,29.73,SSE,151,5.0,10.0,47,0.00,,---,0.00,VWS V14.01,2013-03-10 05:17:00,
2013-03-10 00:18:00,56.1,36.2,29.73,SSE,166,6.0,10.0,47,0.00,,---,0.00,VWS V14.01,2013-03-10 05:18:00,
2013-03-10 00:19:00,56.1,36.2,29.73,SSE,147,5.0,10.0,47,0.00,,---,0.00,VWS V14.01,2013-03-10 05:19:00,
2013-03-10 00:20:00,56.2,36.3,29.73,SSE,157,7.0,10.0,47,0.00,,---,0.00,VWS V14.01,2013-03-10 05:20:00,
2013-03-10 00:21:00,56.2,36.3,29.73,South,169,8.0,10.0,47,0.00,,---,0.00,VWS V14.01,2013-03-10 05:21:00,
2013-03-10 00:22:00,56.2,35.7,29.73,SSE,147,5.0,10.0,46,0.00,,---,0.00,VWS V14.01,2013-03-10 05:22:00,
2013-03-10 00:23:00,56.3,35.8,29.73,SSE,153,7.0,10.0,46,0.00,,---,0.00,VWS V14.01,2013-03-10 05:23:00,
2013-03-10 00:24:00,56.3,35.8,29.73,SSE,161,6.0,10.0,46,0.00,,---,0.00,VWS V14.01,2013-03-10 05:24:00,
2013-03-10 00:25:00,56.3,35.8,29.73,South,178,5.0,10.0,46,0.00,,---,0.00,VWS V14.01,2013-03-10 05:25:00,
2013-03-10 00:26:00,56.3,35.8,29.73,SSE,155,3.0,10.0,46,0.00,,---,0.00,VWS V14.01,2013-03-10 05:26:00,
2013-03-10 00:27:00,56.3,36.3,29.73,SSE,164,4.0,10.0,47,0.00,,---,0.00,VWS V14.01,2013-03-10 05:27:00,
2013-03-10 00:28:00,56.3,36.3,29.73,SSE,160,4.0,10.0,47,0.00,,---,0.00,VWS V14.01,2013-03-10 05:28:00,
2013-03-10 00:29:00,56.3,36.3,29.73,South,173,5.0,10.0,47,0.00,,---,0.00,VWS V14.01,2013-03-10 05:29:00,
2013-03-10 00:30:00,56.3,36.3,29.73,South,176,3.0,10.0,47,0.00,,---,0.00,VWS V14.01,2013-03-10 05:30:00,
2013-03-10 00:31:00,56.2,36.8,29.73,SE,146,5.0,5.0,48,0.00,,---,0.00,VWS V14.01,2013-03-10 05:31:00,
2013-03-10 00:32:00,56.2,36.8,29.73,SSE,167,5.0,7.0,48,0.00,,---,0.00,VWS V14.01,2013-03-10 05:32:00,
2013-03-10 00:33:00,56.2,36.8,29.73,SSE,158,5.0,9.0,48,0.00,,---,0.00,VWS V14.01,2013-03-10 05:33:00,
2013-03-10 00:34:00,56.2,36.8,29.73,SSE,166,8.0,11.0,48,0.00,,---,0.00,VWS V14.01,2013-03-10 05:34:00,
2013-03-10 00:35:00,56.2,36.8,29.73,South,172,5.0,11.0,48,0.00,,---,0.00,VWS V14.01,2013-03-10 05:35:00,
2013-03-10 00:36:00,56.2,37.3,29.73,SSE,151,6.0,11.0,49,0.00,,---,0.00,VWS V14.01,2013-03-10 05:36:00,
2013-03-10 00:37:00,56.1,37.2,29.72,South,175,4.0,11.0,49,0.00,,---,0.00,VWS V14.01,2013-03-10 05:37:00,
2013-03-10 00:38:00,56.1,37.2,29.72,SSE,157,7.0,11.0,49,0.00,,---,0.00,VWS V14.01,2013-03-10 05:38:00,
2013-03-10 00:39:00,56.1,37.2,29.73,South,170,4.0,11.0,49,0.00,,---,0.00,VWS V14.01,2013-03-10 05:39:00,
2013-03-10 00:40:00,56.0,37.1,29.72,SSE,163,9.0,11.0,49,0.00,,---,0.00,VWS V14.01,2013-03-10 05:40:00,
2013-03-10 00:41:00,56.0,37.6,29.73,SSE,168,5.0,11.0,50,0.00,,---,0.00,VWS V14.01,2013-03-10 05:41:00,
2013-03-10 00:42:00,56.0,37.6,29.72,SSE,157,5.0,12.0,50,0.00,,---,0.00,VWS V14.01,2013-03-10 05:42:00,
2013-03-10 00:43:00,55.9,37.5,29.72,SSE,154,9.0,12.0,50,0.00,,---,0.00,VWS V14.01,2013-03-10 05:43:00,
2013-03-10 00:44:00,55.9,37.5,29.72,South,184,7.0,12.0,50,0.00,,---,0.00,VWS V14.01,2013-03-10 05:44:00,
2013-03-10 00:45:00,55.9,38.0,29.72,SE,136,7.0,12.0,51,0.00,,---,0.00,VWS V14.01,2013-03-10 05:45:00,
2013-03-10 00:46:00,55.9,38.0,29.72,SSE,156,6.0,13.0,51,0.00,,---,0.00,VWS V14.01,2013-03-10 05:46:00,
2013-03-10 00:47:00,55.8,38.0,29.72,South,178,5.0,13.0,51,0.00,,---,0.00,VWS V14.01,2013-03-10 05:47:00,
2013-03-10 00:48:00,55.7,37.9,29.72,SE,145,9.0,13.0,51,0.00,,---,0.00,VWS V14.01,2013-03-10 05:48:00,
2013-03-10 00:49:00,55.8,38.0,29.72,SE,144,8.0,13.0,51,0.00,,---,0.00,VWS V14.01,2013-03-10 05:49:00,
2013-03-10 00:50:00,55.7,37.9,29.72,SSE,159,6.0,13.0,51,0.00,,---,0.00,VWS V14.01,2013-03-10 05:50:00,
2013-03-10 00:51:00,55.7,38.4,29.72,SSE,160,4.0,13.0,52,0.00,,---,0.00,VWS V14.01,2013-03-10 05:51:00,
2013-03-10 00:52:00,55.7,38.4,29.72,South,174,9.0,13.0,52,0.00,,---,0.00,VWS V14.01,2013-03-10 05:52:00,
2013-03-10 00:53:00,55.7,38.4,29.72,SSE,155,6.0,13.0,52,0.00,,---,0.00,VWS V14.01,2013-03-10 05:53:00,
2013-03-10 00:54:00,55.6,38.3,29.72,SSE,168,7.0,13.0,52,0.00,,---,0.00,VWS V14.01,2013-03-10 05:54:00,
2013-03-10 00:55:00,55.6,38.3,29.72,SSE,164,11.0,13.0,52,0.00,,---,0.00,VWS V14.01,2013-03-10 05:55:00,
2013-03-10 00:56:00,55.6,38.8,29.72,South,175,9.0,13.0,53,0.00,,---,0.00,VWS V14.01,2013-03-10 05:56:00,
2013-03-10 00:57:00,55.6,38.8,29.72,South,171,9.0,13.0,53,0.00,,---,0.00,VWS V14.01,2013-03-10 05:57:00,
2013-03-10 00:58:00,55.6,38.8,29.72,SSE,151,11.0,13.0,53,0.00,,---,0.00,VWS V14.01,2013-03-10 05:58:00,
2013-03-10 00:59:00,55.5,38.7,29.71,SSE,163,13.0,13.0,53,0.00,,---,0.00,VWS V14.01,2013-03-10 05:59:00,
2013-03-10 01:00:00,55.6,38.8,29.72,SSE,155,7.0,13.0,53,0.00,,---,0.00,VWS V14.01,2013-03-10 06:00:00,
2013-03-10 01:01:00,55.5,38.7,29.71,SSE,149,10.0,10.0,53,0.00,,---,0.00,VWS V14.01,2013-03-10 06:01:00,
2013-03-10 01:02:00,55.5,39.1,29.71,South,178,8.0,10.0,54,0.00,,---,0.00,VWS V14.01,2013-03-10 06:02:00,
2013-03-10 01:03:00,55.5,39.1,29.72,SSE,161,6.0,11.0,54,0.00,,---,0.00,VWS V14.01,2013-03-10 06:03:00,
2013-03-10 01:04:00,55.5,39.1,29.72,South,183,4.0,11.0,54,0.00,,---,0.00,VWS V14.01,2013-03-10 06:04:00,
2013-03-10 01:05:00,55.4,39.0,29.72,SE,144,4.0,11.0,54,0.00,,---,0.00,VWS V14.01,2013-03-10 06:05:00,
2013-03-10 01:06:00,55.4,39.0,29.72,SSE,157,4.0,11.0,54,0.00,,---,0.00,VWS V14.01,2013-03-10 06:06:00,
2013-03-10 01:07:00,55.4,39.0,29.72,SSE,165,5.0,11.0,54,0.00,,---,0.00,VWS V14.01,2013-03-10 06:07:00,
2013-03-10 01:08:00,55.3,39.0,29.72,SSE,156,5.0,11.0,54,0.00,,---,0.00,VWS V14.01,2013-03-10 06:08:00,
2013-03-10 01:09:00,55.3,39.0,29.72,SSE,167,5.0,11.0,54,0.00,,---,0.00,VWS V14.01,2013-03-10 06:09:00,
2013-03-10 01:10:00,55.3,39.0,29.71,South,172,6.0,11.0,54,0.00,,---,0.00,VWS V14.01,2013-03-10 06:10:00,
2013-03-10 01:11:00,55.3,39.4,29.72,South,191,7.0,11.0,55,0.00,,---,0.00,VWS V14.01,2013-03-10 06:11:00,
2013-03-10 01:12:00,55.2,39.3,29.71,SSE,155,4.0,11.0,55,0.00,,---,0.00,VWS V14.01,2013-03-10 06:12:00,
2013-03-10 01:13:00,55.2,39.3,29.71,SSE,157,4.0,11.0,55,0.00,,---,0.00,VWS V14.01,2013-03-10 06:13:00,
2013-03-10 01:14:00,55.1,39.2,29.71,SSE,157,7.0,11.0,55,0.00,,---,0.00,VWS V14.01,2013-03-10 06:14:00,
2013-03-10 01:15:00,55.1,39.2,29.71,SSE,159,9.0,11.0,55,0.00,,---,0.00,VWS V14.01,2013-03-10 06:15:00,
2013-03-10 01:16:00,55.1,39.2,29.71,South,180,9.0,11.0,55,0.00,,---,0.00,VWS V14.01,2013-03-10 06:16:00,
2013-03-10 01:17:00,55.1,39.2,29.71,SSE,163,10.0,11.0,55,0.00,,---,0.00,VWS V14.01,2013-03-10 06:17:00,
2013-03-10 01:18:00,55.1,39.2,29.71,SSE,155,8.0,13.0,55,0.00,,---,0.00,VWS V14.01,2013-03-10 06:18:00,
2013-03-10 01:19:00,55.1,39.2,29.71,SSE,166,8.0,13.0,55,0.00,,---,0.00,VWS V14.01,2013-03-10 06:19:00,
2013-03-10 01:20:00,55.0,39.2,29.71,SSE,149,6.0,13.0,55,0.00,,---,0.00,VWS V14.01,2013-03-10 06:20:00,
2013-03-10 01:21:00,55.0,39.2,29.71,SE,126,8.0,13.0,55,0.00,,---,0.00,VWS V14.01,2013-03-10 06:21:00,
2013-03-10 01:22:00,55.0,39.2,29.71,SSE,164,6.0,13.0,55,0.00,,---,0.00,VWS V14.01,2013-03-10 06:22:00,
2013-03-10 01:23:00,55.0,39.2,29.71,SE,135,7.0,13.0,55,0.00,,---,0.00,VWS V14.01,2013-03-10 06:23:00,
2013-03-10 01:24:00,55.0,39.2,29.71,South,185,6.0,13.0,55,0.00,,---,0.00,VWS V14.01,2013-03-10 06:24:00,
2013-03-10 01:25:00,54.9,39.0,29.71,South,170,5.0,13.0,55,0.00,,---,0.00,VWS V14.01,2013-03-10 06:25:00,
2013-03-10 01:26:00,54.9,39.0,29.71,ESE,123,8.0,13.0,55,0.00,,---,0.00,VWS V14.01,2013-03-10 06:26:00,
2013-03-10 01:27:00,54.8,39.4,29.71,SE,145,5.0,13.0,56,0.00,,---,0.00,VWS V14.01,2013-03-10 06:27:00,
2013-03-10 01:28:00,54.8,39.4,29.71,SSE,165,8.0,13.0,56,0.00,,---,0.00,VWS V14.01,2013-03-10 06:28:00,
2013-03-10 01:29:00,54.8,39.0,29.71,SE,127,7.0,13.0,55,0.00,,---,0.00,VWS V14.01,2013-03-10 06:29:00,
2013-03-10 01:30:00,54.7,39.3,29.71,SE,144,7.0,13.0,56,0.00,,---,0.00,VWS V14.01,2013-03-10 06:30:00,
2013-03-10 01:31:00,54.7,39.3,29.71,SE,140,8.0,9.0,56,0.00,,---,0.00,VWS V14.01,2013-03-10 06:31:00,
2013-03-10 01:32:00,54.6,39.2,29.71,SSE,159,9.0,11.0,56,0.00,,---,0.00,VWS V14.01,2013-03-10 06:32:00,
2013-03-10 01:33:00,54.6,39.2,29.71,SSW,192,11.0,11.0,56,0.00,,---,0.00,VWS V14.01,2013-03-10 06:33:00,
2013-03-10 01:34:00,54.6,38.8,29.71,SSE,166,1.0,11.0,55,0.00,,---,0.00,VWS V14.01,2013-03-10 06:34:00,
2013-03-10 01:35:00,54.6,39.2,29.70,SSE,149,7.0,11.0,56,0.00,,---,0.00,VWS V14.01,2013-03-10 06:35:00,
2013-03-10 01:36:00,54.5,39.1,29.71,South,183,7.0,11.0,56,0.00,,---,0.00,VWS V14.01,2013-03-10 06:36:00,
2013-03-10 01:37:00,54.5,39.1,29.70,South,178,5.0,11.0,56,0.00,,---,0.00,VWS V14.01,2013-03-10 06:37:00,
2013-03-10 01:38:00,54.5,39.1,29.70,SE,144,10.0,11.0,56,0.00,,---,0.00,VWS V14.01,2013-03-10 06:38:00,
2013-03-10 01:39:00,54.4,39.0,29.70,SSE,155,4.0,11.0,56,0.00,,---,0.00,VWS V14.01,2013-03-10 06:39:00,
2013-03-10 01:40:00,54.4,39.0,29.70,SSE,148,5.0,11.0,56,0.00,,---,0.00,VWS V14.01,2013-03-10 06:40:00,
2013-03-10 01:41:00,54.4,39.0,29.70,South,180,5.0,11.0,56,0.00,,---,0.00,VWS V14.01,2013-03-10 06:41:00,
2013-03-10 01:42:00,54.3,39.0,29.70,SSE,168,11.0,13.0,56,0.00,,---,0.00,VWS V14.01,2013-03-10 06:42:00,
2013-03-10 01:43:00,54.3,39.0,29.70,South,190,5.0,13.0,56,0.00,,---,0.00,VWS V14.01,2013-03-10 06:43:00,
2013-03-10 01:44:00,54.3,39.0,29.70,SSW,194,7.0,13.0,56,0.00,,---,0.00,VWS V14.01,2013-03-10 06:44:00,
2013-03-10 01:45:00,54.3,39.0,29.70,South,184,7.0,13.0,56,0.00,,---,0.00,VWS V14.01,2013-03-10 06:45:00,
2013-03-10 01:46:00,54.2,38.9,29.70,SSE,167,4.0,13.0,56,0.00,,---,0.00,VWS V14.01,2013-03-10 06:46:00,
2013-03-10 01:47:00,54.2,38.9,29.70,South,177,4.0,13.0,56,0.00,,---,0.00,VWS V14.01,2013-03-10 06:47:00,
2013-03-10 01:48:00,54.2,38.9,29.70,South,171,7.0,13.0,56,0.00,,---,0.00,VWS V14.01,2013-03-10 06:48:00,
2013-03-10 01:49:00,54.2,38.9,29.70,SE,142,5.0,13.0,56,0.00,,---,0.00,VWS V14.01,2013-03-10 06:49:00,
2013-03-10 01:50:00,54.1,38.8,29.70,SSE,152,4.0,13.0,56,0.00,,---,0.00,VWS V14.01,2013-03-10 06:50:00,
2013-03-10 01:51:00,54.1,38.8,29.70,SE,134,2.0,13.0,56,0.00,,---,0.00,VWS V14.01,2013-03-10 06:51:00,
2013-03-10 01:52:00,54.1,39.2,29.70,SSE,150,5.0,13.0,57,0.00,,---,0.00,VWS V14.01,2013-03-10 06:52:00,
2013-03-10 01:53:00,54.0,39.1,29.70,SSE,159,3.0,13.0,57,0.00,,---,0.00,VWS V14.01,2013-03-10 06:53:00,
2013-03-10 01:54:00,54.0,39.1,29.70,SSE,166,7.0,13.0,57,0.00,,---,0.00,VWS V14.01,2013-03-10 06:54:00,
2013-03-10 01:55:00,54.0,38.7,29.70,SSE,159,5.0,13.0,56,0.00,,---,0.00,VWS V14.01,2013-03-10 06:55:00,
2013-03-10 01:56:00,54.0,38.7,29.70,SSE,155,4.0,13.0,56,0.00,,---,0.00,VWS V14.01,2013-03-10 06:56:00,
2013-03-10 01:57:00,54.0,39.1,29.70,South,181,3.0,13.0,57,0.00,,---,0.00,VWS V14.01,2013-03-10 06:57:00,
2013-03-10 01:58:00,53.9,39.0,29.70,SSE,166,7.0,13.0,57,0.00,,---,0.00,VWS V14.01,2013-03-10 06:58:00,
2013-03-10 01:59:00,53.9,38.6,29.70,South,170,4.0,13.0,56,0.00,,---,0.00,VWS V14.01,2013-03-10 06:59:00,
2013-03-10 03:40:00,53.9,39.0,29.70,South,175,1.0,13.0,57,0.00,,---,0.00,VWS V14.01,2013-03-10 07:40:00,
2013-03-10 03:45:00,53.9,38.6,29.69,South,169,5.0,9.0,56,0.00,,---,0.00,VWS V14.01,2013-03-10 07:45:00,
2013-03-10 03:50:00,53.8,38.5,29.69,SE,138,5.0,11.0,56,0.00,,---,0.00,VWS V14.01,2013-03-10 07:50:00,
2013-03-10 03:55:00,53.6,38.8,29.68,SE,143,7.0,11.0,57,0.00,,---,0.00,VWS V14.01,2013-03-10 07:55:00,
2013-03-10 04:00:00,53.5,38.2,29.68,SE,134,9.0,12.0,56,0.00,,---,0.00,VWS V14.01,2013-03-10 08:00:00,
2013-03-10 04:05:00,53.4,38.1,29.68,SSE,150,6.0,12.0,56,0.00,,---,0.00,VWS V14.01,2013-03-10 08:05:00,
2013-03-10 04:10:00,53.3,38.0,29.68,SSE,157,8.0,12.0,56,0.00,,---,0.00,VWS V14.01,2013-03-10 08:10:00,
2013-03-10 04:15:00,53.3,37.6,29.69,SSE,159,3.0,8.0,55,0.00,,---,0.00,VWS V14.01,2013-03-10 08:15:00,
2013-03-10 04:20:00,53.3,37.6,29.69,South,184,7.0,8.0,55,0.00,,---,0.00,VWS V14.01,2013-03-10 08:20:00,
2013-03-10 04:25:00,53.3,37.6,29.69,South,181,5.0,9.0,55,0.00,,---,0.00,VWS V14.01,2013-03-10 08:25:00,
2013-03-10 04:30:00,53.2,37.5,29.69,South,187,2.0,9.0,55,0.00,,---,0.00,VWS V14.01,2013-03-10 08:30:00,
2013-03-10 04:35:00,53.2,37.0,29.70,SSW,194,5.0,9.0,54,0.00,,---,0.00,VWS V14.01,2013-03-10 08:35:00,
2013-03-10 04:40:00,53.2,37.0,29.69,SSW,192,5.0,10.0,54,0.00,,---,0.00,VWS V14.01,2013-03-10 08:40:00,
2013-03-10 04:45:00,53.0,36.8,29.69,SSW,192,4.0,7.0,54,0.00,,---,0.00,VWS V14.01,2013-03-10 08:45:00,
2013-03-10 04:50:00,53.0,37.3,29.69,South,190,4.0,7.0,55,0.00,,---,0.00,VWS V14.01,2013-03-10 08:50:00,
2013-03-10 04:55:00,52.9,36.7,29.70,SW,235,4.0,7.0,54,0.00,,---,0.00,VWS V14.01,2013-03-10 08:55:00,
2013-03-10 05:00:00,52.9,36.7,29.70,SW,218,4.0,7.0,54,0.00,,---,0.00,VWS V14.01,2013-03-10 09:00:00,
2013-03-10 05:05:00,52.8,36.6,29.69,South,188,0.0,7.0,54,0.00,,---,0.00,VWS V14.01,2013-03-10 09:05:00,
2013-03-10 05:10:00,52.7,36.1,29.69,South,173,4.0,7.0,53,0.00,,---,0.00,VWS V14.01,2013-03-10 09:10:00,
2013-03-10 05:15:00,52.7,36.1,29.70,South,184,2.0,5.0,53,0.00,,---,0.00,VWS V14.01,2013-03-10 09:15:00,
2013-03-10 05:20:00,52.7,36.1,29.70,South,191,5.0,6.0,53,0.00,,---,0.00,VWS V14.01,2013-03-10 09:20:00,
2013-03-10 05:25:00,52.7,36.1,29.71,SSW,203,4.0,6.0,53,0.00,,---,0.00,VWS V14.01,2013-03-10 09:25:00,
2013-03-10 05:30:00,52.6,36.0,29.71,SW,218,2.0,6.0,53,0.00,,---,0.00,VWS V14.01,2013-03-10 09:30:00,
2013-03-10 05:35:00,52.5,36.3,29.71,SW,218,3.0,6.0,54,0.00,,---,0.00,VWS V14.01,2013-03-10 09:35:00,
2013-03-10 05:40:00,52.4,36.3,29.72,WSW,238,4.0,6.0,54,0.00,,---,0.00,VWS V14.01,2013-03-10 09:40:00,
2013-03-10 05:45:00,52.3,36.6,29.72,SW,232,4.0,5.0,55,0.00,,---,0.00,VWS V14.01,2013-03-10 09:45:00,
2013-03-10 05:50:00,52.2,36.5,29.72,SW,232,2.0,5.0,55,0.00,,---,0.00,VWS V14.01,2013-03-10 09:50:00,
2013-03-10 05:55:00,52.2,37.0,29.72,SSW,211,3.0,5.0,56,0.00,,---,0.00,VWS V14.01,2013-03-10 09:55:00,
2013-03-10 06:00:00,52.1,36.9,29.72,SSW,210,2.0,5.0,56,0.00,,---,0.00,VWS V14.01,2013-03-10 10:00:00,
2013-03-10 06:05:00,52.1,36.4,29.73,SSW,209,2.0,5.0,55,0.00,,---,0.00,VWS V14.01,2013-03-10 10:05:00,
2013-03-10 06:10:00,52.1,36.4,29.73,SSW,207,2.0,5.0,55,0.00,,---,0.00,VWS V14.01,2013-03-10 10:10:00,
2013-03-10 06:15:00,52.0,36.3,29.73,SSW,207,1.0,4.0,55,0.00,,---,0.00,VWS V14.01,2013-03-10 10:15:00,
2013-03-10 06:20:00,52.1,36.4,29.73,SSW,200,2.0,6.0,55,0.00,,---,0.00,VWS V14.01,2013-03-10 10:20:00,
2013-03-10 06:25:00,52.1,36.9,29.73,SSW,192,3.0,6.0,56,0.00,,---,0.00,VWS V14.01,2013-03-10 10:25:00,
2013-03-10 06:30:00,52.1,36.9,29.73,South,171,3.0,6.0,56,0.00,,---,0.00,VWS V14.01,2013-03-10 10:30:00,
2013-03-10 06:35:00,52.0,37.2,29.73,South,190,1.0,6.0,57,0.00,,---,0.00,VWS V14.01,2013-03-10 10:35:00,
2013-03-10 06:40:00,51.9,37.2,29.73,SSW,196,5.0,6.0,57,0.00,,---,0.00,VWS V14.01,2013-03-10 10:40:00,
2013-03-10 06:45:00,51.8,37.1,29.73,SSW,200,4.0,5.0,57,0.00,,---,0.00,VWS V14.01,2013-03-10 10:45:00,
2013-03-10 06:50:00,51.7,37.4,29.74,SSW,196,2.0,6.0,58,0.00,,---,0.00,VWS V14.01,2013-03-10 10:50:00,
2013-03-10 06:55:00,51.8,37.5,29.74,SSW,198,3.0,6.0,58,0.00,,---,0.00,VWS V14.01,2013-03-10 10:55:00,
2013-03-10 07:00:00,51.7,37.4,29.74,SSW,200,5.0,6.0,58,0.00,,---,0.00,VWS V14.01,2013-03-10 11:00:00,
2013-03-10 07:05:00,51.7,37.4,29.74,SSE,168,4.0,6.0,58,0.00,,---,0.00,VWS V14.01,2013-03-10 11:05:00,
2013-03-10 07:10:00,51.5,37.7,29.73,SSE,153,4.0,6.0,59,0.00,,---,0.00,VWS V14.01,2013-03-10 11:10:00,
2013-03-10 07:21:00,51.2,37.8,29.73,SE,145,5.0,6.0,60,0.00,,---,0.00,VWS V14.01,2013-03-10 11:21:00,
2013-03-10 07:26:00,51.2,37.8,29.73,SSE,165,4.0,7.0,60,0.00,,---,0.00,VWS V14.01,2013-03-10 11:26:00,
2013-03-10 07:31:00,51.2,37.8,29.73,SE,146,4.0,7.0,60,0.00,,---,0.00,VWS V14.01,2013-03-10 11:31:00,
2013-03-10 07:36:00,51.2,38.2,29.73,SSE,153,6.0,8.0,61,0.00,,---,0.00,VWS V14.01,2013-03-10 11:36:00,
2013-03-10 07:41:00,51.3,38.3,29.74,South,175,4.0,6.0,61,0.00,,---,0.00,VWS V14.01,2013-03-10 11:41:00,
2013-03-10 07:46:00,51.3,38.3,29.74,SSE,161,5.0,7.0,61,0.00,,---,0.00,VWS V14.01,2013-03-10 11:46:00,
2013-03-10 07:51:00,51.2,38.6,29.74,SSE,151,4.0,10.0,62,0.00,,---,0.00,VWS V14.01,2013-03-10 11:51:00,
2013-03-10 07:56:00,51.2,38.6,29.74,SSE,165,4.0,10.0,62,0.00,,---,0.00,VWS V14.01,2013-03-10 11:56:00,
2013-03-10 08:01:00,51.2,39.0,29.74,South,184,6.0,10.0,63,0.00,,---,0.00,VWS V14.01,2013-03-10 12:01:00,
2013-03-10 08:06:00,51.1,39.0,29.74,SSE,150,5.0,10.0,63,0.00,,---,0.00,VWS V14.01,2013-03-10 12:06:00,
2013-03-10 08:11:00,51.0,39.3,29.73,SSE,153,5.0,6.0,64,0.00,,---,0.00,VWS V14.01,2013-03-10 12:11:00,
2013-03-10 08:16:00,51.0,39.7,29.73,SSE,167,7.0,8.0,65,0.00,,---,0.00,VWS V14.01,2013-03-10 12:16:00,
2013-03-10 08:21:00,51.0,40.1,29.73,SE,143,5.0,9.0,66,0.00,,---,0.00,VWS V14.01,2013-03-10 12:21:00,
2013-03-10 08:26:00,51.1,40.5,29.73,SSE,157,6.0,9.0,67,0.00,,---,0.00,VWS V14.01,2013-03-10 12:26:00,
2013-03-10 08:31:00,51.2,41.0,29.73,SSE,157,4.0,9.0,68,0.00,,---,0.00,VWS V14.01,2013-03-10 12:31:00,
2013-03-10 08:36:00,51.3,41.1,29.73,SSE,159,4.0,9.0,68,0.00,,---,0.00,VWS V14.01,2013-03-10 12:36:00,
2013-03-10 08:41:00,51.4,41.6,29.72,SE,139,7.0,8.0,69,0.00,,---,0.00,VWS V14.01,2013-03-10 12:41:00,
2013-03-10 08:46:00,51.5,41.7,29.72,SE,135,8.0,10.0,69,0.00,,---,0.00,VWS V14.01,2013-03-10 12:46:00,
2013-03-10 08:51:00,51.6,41.8,29.72,SE,146,11.0,13.0,69,0.00,,---,0.00,VWS V14.01,2013-03-10 12:51:00,
2013-03-10 08:56:00,51.8,42.0,29.72,SSE,162,4.0,13.0,69,0.00,,---,0.00,VWS V14.01,2013-03-10 12:56:00,
2013-03-10 09:01:00,52.1,42.6,29.72,South,169,8.0,13.0,70,0.00,,---,0.00,VWS V14.01,2013-03-10 13:01:00,
2013-03-10 09:06:00,52.3,42.8,29.72,SSE,153,5.0,13.0,70,0.00,,---,0.00,VWS V14.01,2013-03-10 13:06:00,
2013-03-10 09:11:00,52.5,43.4,29.72,South,177,8.0,8.0,71,0.00,,---,0.00,VWS V14.01,2013-03-10 13:11:00,
2013-03-10 09:16:00,52.7,43.9,29.72,South,180,5.0,12.0,72,0.00,,---,0.00,VWS V14.01,2013-03-10 13:16:00,
2013-03-10 09:21:00,53.1,44.3,29.72,SE,136,10.0,12.0,72,0.00,,---,0.00,VWS V14.01,2013-03-10 13:21:00,
2013-03-10 09:26:00,53.2,44.8,29.71,SSE,153,7.0,13.0,73,0.00,,---,0.00,VWS V14.01,2013-03-10 13:26:00,
2013-03-10 09:31:00,53.5,44.7,29.71,South,179,6.0,13.0,72,0.00,,---,0.00,VWS V14.01,2013-03-10 13:31:00,
2013-03-10 09:36:00,53.3,44.9,29.71,SSE,148,7.0,13.0,73,0.00,,---,0.00,VWS V14.01,2013-03-10 13:36:00,
2013-03-10 09:41:00,53.3,45.2,29.71,South,172,7.0,9.0,74,0.00,,---,0.00,VWS V14.01,2013-03-10 13:41:00,
2013-03-10 09:46:00,53.3,45.2,29.71,SSE,165,1.0,12.0,74,0.00,,---,0.00,VWS V14.01,2013-03-10 13:46:00,
2013-03-10 09:51:00,53.3,45.6,29.71,SE,142,6.0,12.0,75,0.00,,---,0.00,VWS V14.01,2013-03-10 13:51:00,
2013-03-10 09:56:00,53.3,45.6,29.71,South,188,5.0,12.0,75,0.00,,---,0.00,VWS V14.01,2013-03-10 13:56:00,
2013-03-10 10:01:00,53.5,45.8,29.72,South,188,5.0,12.0,75,0.00,,---,0.00,VWS V14.01,2013-03-10 14:01:00,
2013-03-10 10:06:00,53.7,46.0,29.72,South,181,2.0,12.0,75,0.00,,---,0.00,VWS V14.01,2013-03-10 14:06:00,
2013-03-10 10:11:00,53.8,45.7,29.72,SSW,213,4.0,4.0,74,0.00,,---,0.00,VWS V14.01,2013-03-10 14:11:00,
2013-03-10 10:16:00,54.1,46.0,29.73,SSW,197,7.0,7.0,74,0.00,,---,0.00,VWS V14.01,2013-03-10 14:16:00,
2013-03-10 10:21:00,54.2,46.5,29.73,South,183,5.0,7.0,75,0.00,,---,0.00,VWS V14.01,2013-03-10 14:21:00,
2013-03-10 10:26:00,54.6,46.5,29.73,SW,216,5.0,7.0,74,0.00,,---,0.00,VWS V14.01,2013-03-10 14:26:00,
2013-03-10 10:31:00,55.1,47.0,29.73,SSE,154,6.0,7.0,74,0.00,,---,0.00,VWS V14.01,2013-03-10 14:31:00,
2013-03-10 10:36:00,55.3,47.2,29.73,SSW,196,6.0,8.0,74,0.00,,---,0.00,VWS V14.01,2013-03-10 14:36:00,
2013-03-10 10:41:00,55.8,47.3,29.73,SSW,194,5.0,5.0,73,0.00,,---,0.00,VWS V14.01,2013-03-10 14:41:00,
2013-03-10 10:46:00,56.6,47.3,29.74,SSE,163,4.0,11.0,71,0.00,,---,0.00,VWS V14.01,2013-03-10 14:46:00,
2013-03-10 10:51:00,56.8,47.5,29.74,SSE,149,5.0,11.0,71,0.00,,---,0.00,VWS V14.01,2013-03-10 14:51:00,
2013-03-10 10:56:00,57.1,47.8,29.73,South,173,2.0,11.0,71,0.00,,---,0.00,VWS V14.01,2013-03-10 14:56:00,
2013-03-10 11:01:00,57.3,47.2,29.73,South,184,4.0,11.0,69,0.00,,---,0.00,VWS V14.01,2013-03-10 15:01:00,
2013-03-10 11:06:00,57.6,47.1,29.73,SE,141,6.0,11.0,68,0.00,,---,0.00,VWS V14.01,2013-03-10 15:06:00,
2013-03-10 11:11:00,58.0,46.7,29.73,South,171,6.0,6.0,66,0.00,,---,0.00,VWS V14.01,2013-03-10 15:11:00,
2013-03-10 11:16:00,58.6,47.3,29.73,SSE,166,5.0,9.0,66,0.00,,---,0.00,VWS V14.01,2013-03-10 15:16:00,
2013-03-10 11:21:00,58.5,47.2,29.73,SE,146,4.0,9.0,66,0.00,,---,0.00,VWS V14.01,2013-03-10 15:21:00,
2013-03-10 11:26:00,58.4,46.7,29.73,SE,146,5.0,9.0,65,0.00,,---,0.00,VWS V14.01,2013-03-10 15:26:00,
2013-03-10 11:31:00,58.8,46.2,29.73,SSE,159,6.0,9.0,63,0.00,,---,0.00,VWS V14.01,2013-03-10 15:31:00,
2013-03-10 11:36:00,58.6,46.5,29.73,SSE,165,6.0,9.0,64,0.00,,---,0.00,VWS V14.01,2013-03-10 15:36:00,
2013-03-10 11:41:00,58.9,45.9,29.73,SSW,200,6.0,8.0,62,0.00,,---,0.00,VWS V14.01,2013-03-10 15:41:00,
2013-03-10 11:46:00,59.1,46.1,29.73,SSE,158,5.0,8.0,62,0.00,,---,0.00,VWS V14.01,2013-03-10 15:46:00,
2013-03-10 11:51:00,59.5,46.1,29.73,East,101,2.0,9.0,61,0.00,,---,0.00,VWS V14.01,2013-03-10 15:51:00,
2013-03-10 11:56:00,60.1,46.2,29.73,SE,144,4.0,9.0,60,0.00,,---,0.00,VWS V14.01,2013-03-10 15:56:00,
2013-03-10 12:01:00,60.5,46.1,29.73,SSE,149,6.0,9.0,59,0.00,,---,0.00,VWS V14.01,2013-03-10 16:01:00,
2013-03-10 12:06:00,60.8,46.8,29.72,SSE,162,6.0,11.0,60,0.00,,---,0.00,VWS V14.01,2013-03-10 16:06:00,
2013-03-10 12:11:00,61.0,46.6,29.72,South,177,4.0,6.0,59,0.00,,---,0.00,VWS V14.01,2013-03-10 16:11:00,
2013-03-10 12:16:00,61.3,46.9,29.72,SW,234,2.0,8.0,59,0.00,,---,0.00,VWS V14.01,2013-03-10 16:16:00,
2013-03-10 12:21:00,62.2,46.8,29.72,SSW,202,8.0,9.0,57,0.00,,---,0.00,VWS V14.01,2013-03-10 16:21:00,
2013-03-10 12:26:00,62.7,46.8,29.71,SE,138,5.0,9.0,56,0.00,,---,0.00,VWS V14.01,2013-03-10 16:26:00,
2013-03-10 12:31:00,62.8,46.4,29.71,SE,128,5.0,10.0,55,0.00,,---,0.00,VWS V14.01,2013-03-10 16:31:00,
2013-03-10 12:36:00,63.6,47.6,29.71,SSW,195,4.0,10.0,56,0.00,,---,0.00,VWS V14.01,2013-03-10 16:36:00,
2013-03-10 12:41:00,63.5,47.1,29.70,SW,221,1.0,3.0,55,0.00,,---,0.00,VWS V14.01,2013-03-10 16:41:00,
2013-03-10 12:46:00,64.3,46.3,29.70,SSE,161,4.0,9.0,52,0.00,,---,0.00,VWS V14.01,2013-03-10 16:46:00,
2013-03-10 12:51:00,64.5,43.8,29.70,South,189,11.0,15.0,47,0.00,,---,0.00,VWS V14.01,2013-03-10 16:51:00,
2013-03-10 12:56:00,64.7,44.0,29.70,SSW,207,6.0,15.0,47,0.00,,---,0.00,VWS V14.01,2013-03-10 16:56:00,
2013-03-10 13:01:00,65.0,44.8,29.70,South,189,11.0,15.0,48,0.00,,---,0.00,VWS V14.01,2013-03-10 17:01:00,
2013-03-10 13:06:00,65.1,44.4,29.70,South,190,6.0,15.0,47,0.00,,---,0.00,VWS V14.01,2013-03-10 17:06:00,
2013-03-10 13:11:00,64.9,43.7,29.69,South,184,7.0,8.0,46,0.00,,---,0.00,VWS V14.01,2013-03-10 17:11:00,
2013-03-10 13:16:00,65.4,44.7,29.68,South,186,7.0,12.0,47,0.00,,---,0.00,VWS V14.01,2013-03-10 17:16:00,
2013-03-10 13:21:00,66.0,44.1,29.68,SSW,213,9.0,15.0,45,0.00,,---,0.00,VWS V14.01,2013-03-10 17:21:00,
2013-03-10 13:26:00,65.8,44.5,29.68,SSW,200,8.0,15.0,46,0.00,,---,0.00,VWS V14.01,2013-03-10 17:26:00,
2013-03-10 13:31:00,66.5,43.3,29.68,South,169,5.0,15.0,43,0.00,,---,0.00,VWS V14.01,2013-03-10 17:31:00,
2013-03-10 13:36:00,66.7,44.1,29.68,SW,225,8.0,15.0,44,0.00,,---,0.00,VWS V14.01,2013-03-10 17:36:00,
2013-03-10 13:41:00,66.9,44.3,29.68,SSW,198,10.0,11.0,44,0.00,,---,0.00,VWS V14.01,2013-03-10 17:41:00,
2013-03-10 13:46:00,67.5,43.6,29.68,SSW,205,9.0,12.0,42,0.00,,---,0.00,VWS V14.01,2013-03-10 17:46:00,
2013-03-10 13:51:00,67.0,43.8,29.68,SSE,155,5.0,14.0,43,0.00,,---,0.00,VWS V14.01,2013-03-10 17:51:00,
2013-03-10 13:56:00,67.1,43.9,29.68,SW,218,6.0,14.0,43,0.00,,---,0.00,VWS V14.01,2013-03-10 17:56:00,
2013-03-10 14:01:00,67.4,44.2,29.68,WSW,239,6.0,14.0,43,0.00,,---,0.00,VWS V14.01,2013-03-10 18:01:00,
2013-03-10 14:06:00,68.5,43.9,29.67,South,178,8.0,19.0,41,0.00,,---,0.00,VWS V14.01,2013-03-10 18:06:00,
2013-03-10 14:11:00,68.7,43.4,29.67,SSE,157,4.0,4.0,40,0.00,,---,0.00,VWS V14.01,2013-03-10 18:11:00,
2013-03-10 14:16:00,68.8,41.5,29.67,SE,145,5.0,12.0,37,0.00,,---,0.00,VWS V14.01,2013-03-10 18:16:00,
2013-03-10 14:21:00,68.9,40.9,29.67,SSE,158,11.0,13.0,36,0.00,,---,0.00,VWS V14.01,2013-03-10 18:21:00,
2013-03-10 14:26:00,68.9,40.2,29.67,SSW,209,11.0,16.0,35,0.00,,---,0.00,VWS V14.01,2013-03-10 18:26:00,
2013-03-10 14:31:00,69.5,41.4,29.67,South,185,13.0,16.0,36,0.00,,---,0.00,VWS V14.01,2013-03-10 18:31:00,
2013-03-10 14:36:00,69.0,41.0,29.67,SW,227,11.0,18.0,36,0.00,,---,0.00,VWS V14.01,2013-03-10 18:36:00,
2013-03-10 14:41:00,69.4,40.6,29.67,SSW,194,11.0,18.0,35,0.00,,---,0.00,VWS V14.01,2013-03-10 18:41:00,
2013-03-10 14:46:00,69.3,40.5,29.66,SSE,157,5.0,15.0,35,0.00,,---,0.00,VWS V14.01,2013-03-10 18:46:00,
2013-03-10 14:51:00,69.8,41.7,29.66,South,174,15.0,16.0,36,0.00,,---,0.00,VWS V14.01,2013-03-10 18:51:00,
2013-03-10 14:56:00,69.9,41.8,29.65,South,172,7.0,16.0,36,0.00,,---,0.00,VWS V14.01,2013-03-10 18:56:00,
2013-03-10 15:01:00,69.4,42.0,29.65,SSE,167,5.0,18.0,37,0.00,,---,0.00,VWS V14.01,2013-03-10 19:01:00,
2013-03-10 15:06:00,69.8,42.4,29.65,South,178,12.0,18.0,37,0.00,,---,0.00,VWS V14.01,2013-03-10 19:06:00,
2013-03-10 15:11:00,69.5,42.8,29.65,South,182,8.0,18.0,38,0.00,,---,0.00,VWS V14.01,2013-03-10 19:11:00,
2013-03-10 15:16:00,69.7,43.0,29.64,SSE,157,6.0,15.0,38,0.00,,---,0.00,VWS V14.01,2013-03-10 19:16:00,
2013-03-10 15:21:00,69.0,43.7,29.65,SSW,192,5.0,15.0,40,0.00,,---,0.00,VWS V14.01,2013-03-10 19:21:00,
2013-03-10 15:26:00,69.2,43.9,29.64,South,171,4.0,15.0,40,0.00,,---,0.00,VWS V14.01,2013-03-10 19:26:00,
2013-03-10 15:31:00,70.0,43.9,29.64,SW,226,2.0,15.0,39,0.00,,---,0.00,VWS V14.01,2013-03-10 19:31:00,
2013-03-10 15:35:00,70.5,45.0,29.64,SE,126,5.0,15.0,40,0.00,,---,0.00,VWS V14.01,2013-03-10 19:35:00,
2013-03-10 15:40:00,70.8,44.0,29.64,SSW,212,10.0,18.0,38,0.00,,---,0.00,VWS V14.01,2013-03-10 19:40:00,
2013-03-10 15:45:00,70.7,42.5,29.64,SSW,194,8.0,15.0,36,0.00,,---,0.00,VWS V14.01,2013-03-10 19:45:00,
2013-03-10 15:50:00,71.5,43.2,29.64,SSW,200,11.0,16.0,36,0.00,,---,0.00,VWS V14.01,2013-03-10 19:50:00,
2013-03-10 15:55:00,71.2,42.9,29.64,SSE,151,10.0,18.0,36,0.00,,---,0.00,VWS V14.01,2013-03-10 19:55:00,
2013-03-10 16:00:00,71.3,43.7,29.64,South,184,5.0,18.0,37,0.00,,---,0.00,VWS V14.01,2013-03-10 20:00:00,
2013-03-10 16:05:00,71.3,43.7,29.64,SSW,202,5.0,18.0,37,0.00,,---,0.00,VWS V14.01,2013-03-10 20:05:00,
2013-03-10 16:10:00,71.6,43.3,29.63,South,182,10.0,18.0,36,0.00,,---,0.00,VWS V14.01,2013-03-10 20:10:00,
2013-03-10 16:15:00,71.1,42.8,29.63,SW,221,10.0,18.0,36,0.00,,---,0.00,VWS V14.01,2013-03-10 20:15:00,
2013-03-10 16:20:00,70.9,43.4,29.63,WSW,248,3.0,18.0,37,0.00,,---,0.00,VWS V14.01,2013-03-10 20:20:00,
2013-03-10 16:25:00,71.2,43.6,29.63,South,177,8.0,18.0,37,0.00,,---,0.00,VWS V14.01,2013-03-10 20:25:00,
2013-03-10 16:30:00,71.3,43.7,29.62,SSW,208,9.0,18.0,37,0.00,,---,0.00,VWS V14.01,2013-03-10 20:30:00,
2013-03-10 16:35:00,71.5,43.2,29.63,SW,216,8.0,18.0,36,0.00,,---,0.00,VWS V14.01,2013-03-10 20:35:00,
2013-03-10 16:40:00,71.7,44.1,29.63,SSW,194,14.0,18.0,37,0.00,,---,0.00,VWS V14.01,2013-03-10 20:40:00,
2013-03-10 16:45:00,71.8,44.8,29.63,SW,219,10.0,14.0,38,0.00,,---,0.00,VWS V14.01,2013-03-10 20:45:00,
2013-03-10 16:50:00,71.7,44.8,29.63,South,176,5.0,14.0,38,0.00,,---,0.00,VWS V14.01,2013-03-10 20:50:00,
2013-03-10 16:55:00,72.2,43.8,29.62,SSW,198,7.0,14.0,36,0.00,,---,0.00,VWS V14.01,2013-03-10 20:55:00,
2013-03-10 17:00:00,72.1,43.7,29.62,South,190,13.0,14.0,36,0.00,,---,0.00,VWS V14.01,2013-03-10 21:00:00,
2013-03-10 17:05:00,72.0,43.6,29.62,South,190,12.0,15.0,36,0.00,,---,0.00,VWS V14.01,2013-03-10 21:05:00,
2013-03-10 17:10:00,72.1,43.7,29.62,WSW,244,14.0,16.0,36,0.00,,---,0.00,VWS V14.01,2013-03-10 21:10:00,
2013-03-10 17:15:00,72.2,43.8,29.62,South,191,8.0,15.0,36,0.00,,---,0.00,VWS V14.01,2013-03-10 21:15:00,
2013-03-10 17:20:00,72.1,43.7,29.61,SW,228,6.0,15.0,36,0.00,,---,0.00,VWS V14.01,2013-03-10 21:20:00,
2013-03-10 17:25:00,72.1,44.4,29.61,South,185,9.0,16.0,37,0.00,,---,0.00,VWS V14.01,2013-03-10 21:25:00,
2013-03-10 17:30:00,71.7,44.1,29.61,SSW,196,4.0,16.0,37,0.00,,---,0.00,VWS V14.01,2013-03-10 21:30:00,
2013-03-10 17:35:00,71.7,44.8,29.61,SW,219,8.0,16.0,38,0.00,,---,0.00,VWS V14.01,2013-03-10 21:35:00,
2013-03-10 17:40:00,71.6,44.0,29.62,SW,235,7.0,16.0,37,0.00,,---,0.00,VWS V14.01,2013-03-10 21:40:00,
2013-03-10 17:45:00,71.4,44.5,29.62,SW,217,5.0,12.0,38,0.00,,---,0.00,VWS V14.01,2013-03-10 21:45:00,
2013-03-10 17:50:00,71.4,44.5,29.61,SSW,202,11.0,12.0,38,0.00,,---,0.00,VWS V14.01,2013-03-10 21:50:00,
2013-03-10 17:55:00,71.5,44.6,29.61,SSW,198,7.0,12.0,38,0.00,,---,0.00,VWS V14.01,2013-03-10 21:55:00,
2013-03-10 18:00:00,71.5,44.6,29.61,South,177,9.0,12.0,38,0.00,,---,0.00,VWS V14.01,2013-03-10 22:00:00,
2013-03-10 18:05:00,71.6,44.7,29.61,SW,227,6.0,12.0,38,0.00,,---,0.00,VWS V14.01,2013-03-10 22:05:00,
2013-03-10 18:10:00,71.6,44.7,29.61,WSW,247,12.0,12.0,38,0.00,,---,0.00,VWS V14.01,2013-03-10 22:10:00,
2013-03-10 18:15:00,71.6,44.7,29.62,WSW,248,10.0,12.0,38,0.00,,---,0.00,VWS V14.01,2013-03-10 22:15:00,
2013-03-10 18:20:00,71.7,45.5,29.61,West,269,6.0,12.0,39,0.00,,---,0.00,VWS V14.01,2013-03-10 22:20:00,
2013-03-10 18:25:00,71.7,45.5,29.61,SW,231,10.0,12.0,39,0.00,,---,0.00,VWS V14.01,2013-03-10 22:25:00,
2013-03-10 18:30:00,71.7,45.5,29.61,WSW,239,7.0,12.0,39,0.00,,---,0.00,VWS V14.01,2013-03-10 22:30:00,
2013-03-10 18:35:00,71.7,46.1,29.61,WSW,245,6.0,12.0,40,0.00,,---,0.00,VWS V14.01,2013-03-10 22:35:00,
2013-03-10 18:40:00,71.6,45.4,29.61,WSW,250,8.0,12.0,39,0.00,,---,0.00,VWS V14.01,2013-03-10 22:40:00,
2013-03-10 18:45:00,71.5,45.9,29.61,SW,232,5.0,13.0,40,0.00,,---,0.00,VWS V14.01,2013-03-10 22:45:00,
2013-03-10 18:50:00,71.4,45.8,29.61,WSW,243,4.0,13.0,40,0.00,,---,0.00,VWS V14.01,2013-03-10 22:50:00,
2013-03-10 18:55:00,71.3,45.8,29.61,West,261,3.0,13.0,40,0.00,,---,0.00,VWS V14.01,2013-03-10 22:55:00,
2013-03-10 19:00:00,71.2,46.3,29.61,SW,227,4.0,13.0,41,0.00,,---,0.00,VWS V14.01,2013-03-10 23:00:00,
2013-03-10 19:05:00,71.2,46.3,29.61,South,172,5.0,13.0,41,0.00,,---,0.00,VWS V14.01,2013-03-10 23:05:00,
2013-03-10 19:10:00,71.1,47.5,29.61,South,185,2.0,13.0,43,0.00,,---,0.00,VWS V14.01,2013-03-10 23:10:00,
2013-03-10 19:15:00,70.9,47.3,29.61,SW,214,9.0,12.0,43,0.00,,---,0.00,VWS V14.01,2013-03-10 23:15:00,
2013-03-10 19:20:00,70.8,47.8,29.61,South,169,4.0,12.0,44,0.00,,---,0.00,VWS V14.01,2013-03-10 23:20:00,
2013-03-10 19:25:00,70.6,48.2,29.61,SSE,167,7.0,12.0,45,0.00,,---,0.00,VWS V14.01,2013-03-10 23:25:00,
2013-03-10 19:30:00,70.3,48.6,29.61,South,180,7.0,12.0,46,0.00,,---,0.00,VWS V14.01,2013-03-10 23:30:00,
2013-03-10 19:35:00,70.1,48.4,29.61,South,171,2.0,12.0,46,0.00,,---,0.00,VWS V14.01,2013-03-10 23:35:00,
2013-03-10 19:40:00,69.6,48.5,29.61,SSW,204,1.0,12.0,47,0.00,,---,0.00,VWS V14.01,2013-03-10 23:40:00,
2013-03-10 19:45:00,69.3,48.8,29.60,SSE,163,4.0,5.0,48,0.00,,---,0.00,VWS V14.01,2013-03-10 23:45:00,
2013-03-10 19:50:00,69.1,48.6,29.60,SSE,159,2.0,5.0,48,0.00,,---,0.00,VWS V14.01,2013-03-10 23:50:00,
2013-03-10 19:55:00,68.8,48.9,29.60,South,171,6.0,6.0,49,0.00,,---,0.00,VWS V14.01,2013-03-10 23:55:00,
2013-03-10 20:00:00,68.6,49.2,29.60,SSE,166,2.0,7.0,50,0.00,,---,0.00,VWS V14.01,2013-03-11 00:00:00,
2013-03-10 20:05:00,68.4,49.1,29.60,SSE,164,2.0,7.0,50,0.00,,---,0.00,VWS V14.01,2013-03-11 00:05:00,
2013-03-10 20:10:00,68.0,49.2,29.60,SSE,164,4.0,7.0,51,0.00,,---,0.00,VWS V14.01,2013-03-11 00:10:00,
2013-03-10 20:15:00,67.7,48.9,29.60,SSE,161,2.0,5.0,51,0.00,,---,0.00,VWS V14.01,2013-03-11 00:15:00,
2013-03-10 20:20:00,67.7,49.5,29.60,SSE,163,2.0,5.0,52,0.00,,---,0.00,VWS V14.01,2013-03-11 00:20:00,
2013-03-10 20:25:00,67.4,49.2,29.60,SSE,161,5.0,5.0,52,0.00,,---,0.00,VWS V14.01,2013-03-11 00:25:00,
2013-03-10 20:30:00,67.2,49.0,29.61,South,170,2.0,5.0,52,0.00,,---,0.00,VWS V14.01,2013-03-11 00:30:00,
2013-03-10 20:35:00,67.0,49.3,29.61,South,170,2.0,5.0,53,0.00,,---,0.00,VWS V14.01,2013-03-11 00:35:00,
2013-03-10 20:40:00,66.7,49.0,29.61,South,169,1.0,5.0,53,0.00,,---,0.00,VWS V14.01,2013-03-11 00:40:00,
2013-03-10 20:45:00,66.6,49.5,29.61,SSE,162,1.0,4.0,54,0.00,,---,0.00,VWS V14.01,2013-03-11 00:45:00,
2013-03-10 20:50:00,66.6,49.5,29.61,SE,146,2.0,4.0,54,0.00,,---,0.00,VWS V14.01,2013-03-11 00:50:00,
2013-03-10 20:55:00,66.6,49.5,29.61,SE,144,4.0,6.0,54,0.00,,---,0.00,VWS V14.01,2013-03-11 00:55:00,
2013-03-10 21:00:00,66.4,49.3,29.61,SSE,157,4.0,6.0,54,0.00,,---,0.00,VWS V14.01,2013-03-11 01:00:00,
2013-03-10 21:05:00,66.2,49.6,29.61,SE,145,2.0,6.0,55,0.00,,---,0.00,VWS V14.01,2013-03-11 01:05:00,
2013-03-10 21:10:00,66.0,49.4,29.61,SE,143,2.0,6.0,55,0.00,,---,0.00,VWS V14.01,2013-03-11 01:10:00,
2013-03-10 21:15:00,65.9,49.8,29.61,SE,140,2.0,5.0,56,0.00,,---,0.00,VWS V14.01,2013-03-11 01:15:00,
2013-03-10 21:20:00,65.8,49.7,29.61,SE,142,3.0,6.0,56,0.00,,---,0.00,VWS V14.01,2013-03-11 01:20:00,
2013-03-10 21:25:00,65.7,49.6,29.61,SE,146,5.0,6.0,56,0.00,,---,0.00,VWS V14.01,2013-03-11 01:25:00,
2013-03-10 21:30:00,65.5,49.4,29.61,SE,142,3.0,6.0,56,0.00,,---,0.00,VWS V14.01,2013-03-11 01:30:00,
2013-03-10 21:35:00,65.3,49.7,29.61,SE,144,5.0,7.0,57,0.00,,---,0.00,VWS V14.01,2013-03-11 01:35:00,
2013-03-10 21:40:00,65.2,49.6,29.61,SSE,157,5.0,7.0,57,0.00,,---,0.00,VWS V14.01,2013-03-11 01:40:00,
2013-03-10 21:45:00,65.2,50.1,29.61,South,175,7.0,8.0,58,0.00,,---,0.00,VWS V14.01,2013-03-11 01:45:00,
2013-03-10 21:50:00,65.2,50.1,29.61,SE,143,5.0,8.0,58,0.00,,---,0.00,VWS V14.01,2013-03-11 01:50:00,
2013-03-10 21:55:00,65.2,50.1,29.61,SSE,158,6.0,8.0,58,0.00,,---,0.00,VWS V14.01,2013-03-11 01:55:00,
2013-03-10 22:00:00,65.0,50.3,29.61,SSE,150,6.0,9.0,59,0.00,,---,0.00,VWS V14.01,2013-03-11 02:00:00,
2013-03-10 22:05:00,65.0,50.3,29.62,SSE,157,5.0,11.0,59,0.00,,---,0.00,VWS V14.01,2013-03-11 02:05:00,
2013-03-10 22:10:00,64.8,50.6,29.62,SSE,154,5.0,11.0,60,0.00,,---,0.00,VWS V14.01,2013-03-11 02:10:00,
2013-03-10 22:15:00,64.7,50.5,29.62,SSE,161,8.0,11.0,60,0.00,,---,0.00,VWS V14.01,2013-03-11 02:15:00,
2013-03-10 22:20:00,64.8,51.0,29.62,SSE,165,5.0,11.0,61,0.00,,---,0.00,VWS V14.01,2013-03-11 02:20:00,
2013-03-10 22:25:00,64.8,51.0,29.62,SSE,152,7.0,12.0,61,0.00,,---,0.00,VWS V14.01,2013-03-11 02:25:00,
2013-03-10 22:30:00,64.8,51.5,29.62,South,173,6.0,12.0,62,0.00,,---,0.00,VWS V14.01,2013-03-11 02:30:00,
2013-03-10 22:35:00,64.7,51.4,29.62,SSE,163,4.0,12.0,62,0.00,,---,0.00,VWS V14.01,2013-03-11 02:35:00,
2013-03-10 22:40:00,64.6,51.3,29.62,SSE,163,3.0,12.0,62,0.00,,---,0.00,VWS V14.01,2013-03-11 02:40:00,
2013-03-10 22:45:00,64.3,51.5,29.62,SSW,199,9.0,13.0,63,0.00,,---,0.00,VWS V14.01,2013-03-11 02:45:00,
2013-03-10 22:50:00,64.3,51.9,29.62,SSW,200,9.0,13.0,64,0.00,,---,0.00,VWS V14.01,2013-03-11 02:50:00,
2013-03-10 22:55:00,64.1,51.7,29.62,SSE,161,9.0,13.0,64,0.00,,---,0.00,VWS V14.01,2013-03-11 02:55:00,
2013-03-10 23:00:00,63.9,51.5,29.61,SSE,155,9.0,13.0,64,0.00,,---,0.00,VWS V14.01,2013-03-11 03:00:00,
2013-03-10 23:05:00,63.8,51.8,29.61,South,184,8.0,13.0,65,0.00,,---,0.00,VWS V14.01,2013-03-11 03:05:00,
2013-03-10 23:10:00,63.6,52.0,29.62,SSE,163,8.0,14.0,66,0.00,,---,0.00,VWS V14.01,2013-03-11 03:10:00,
2013-03-10 23:15:00,63.5,52.0,29.62,South,173,13.0,16.0,66,0.00,,---,0.00,VWS V14.01,2013-03-11 03:15:00,
2013-03-10 23:20:00,63.3,52.2,29.62,SSE,161,8.0,16.0,67,0.00,,---,0.00,VWS V14.01,2013-03-11 03:20:00,
2013-03-10 23:25:00,63.2,52.5,29.62,SSE,164,4.0,18.0,68,0.00,,---,0.00,VWS V14.01,2013-03-11 03:25:00,
2013-03-10 23:30:00,62.9,52.2,29.62,South,175,4.0,18.0,68,0.00,,---,0.00,VWS V14.01,2013-03-11 03:30:00,
2013-03-10 23:35:00,62.9,52.6,29.63,SSE,161,9.0,22.0,69,0.00,,---,0.00,VWS V14.01,2013-03-11 03:35:00,
2013-03-10 23:40:00,62.8,52.5,29.63,SSE,157,6.0,22.0,69,0.00,,---,0.00,VWS V14.01,2013-03-11 03:40:00,
2013-03-10 23:45:00,62.6,52.7,29.63,South,176,11.0,15.0,70,0.00,,---,0.00,VWS V14.01,2013-03-11 03:45:00,
2013-03-10 23:50:00,62.6,52.7,29.63,SSE,167,6.0,16.0,70,0.00,,---,0.00,VWS V14.01,2013-03-11 03:50:00,
2013-03-10 23:55:00,62.3,52.8,29.63,South,179,9.0,16.0,71,0.00,,---,0.00,VWS V14.01,2013-03-11 03:55:00,